天启 28星 (TIANQI 28)

导读

天启28星(TIANQI 28)是中国北京国电高科科技研发运营的低轨物联网卫星,隶属于天启星座组网,于北京时间2024年5月29日,通过谷神星一号海射型运载火箭在中国黄海海域发射入轨。卫星运行在倾角约45°、高度约888-906公里的近地轨道,为全球各行业提供准实时短数据采集服务,填补网络盲区的物联网通信空白,助力构建天地一体化万物互联生态,目前卫星状态稳定在轨。

Basic Information
目录编号:
59912
目录名称:
TIANQI 28
国际标识:
2024-102D
轨道中心:
EARTH
卫星名称:
天启 28星
卫星全名:
天启 28星 (TIANQI 28)
卫星状态:
在轨 (已飞行835 天)
发射日期:
2024-05-29 UTC
国别 :
中国 (CN)
星等 :
--
Orbit Information
数据来源 国际轨道数据 AOE轨道数据
星历时间 2026-09-11T00:12:30+0800
11小时前
查看轨道信息
2026-09-06T13:00:00+0800
4天前
查看轨道信息
半长轴 7274.74km 7274.742km
偏心率 0.0013454 0.0013277
轨道倾角 44.978° 44.977°
近地点辐角 292.506° 271.531°
升交点赤经 241.272° 261.152°
平近点角 67.434° 246.605°
近地点 886.815km 886.946km
远地点 906.391km 906.264km
周期 102.917分钟 102.917分钟
每日圈数 13.991897 13.991892
Detailed Information
平衡模式:
三轴稳定
覆盖范围:
全球
运营商:
北京国电高科科技有限公司
运营商所在国:
中国
制造商(研发单位):
北京国电高科科技有限公司
制造商所在国:
中国
使用方式:
暂无
Satellite Introduction
天启星座(Tianqi)由38颗卫星组网而成,提供全球短数据采集。致力于为全球物联网相关行业用户提供覆盖全球、准实时的物联网卫星数据服务,真正实现空中、海洋和地面的万物互联,构建天地一体化的卫星物联网生态系统,全面解决海上、空中以及陆地网络盲区(我国有70%以上陆地没有网络覆盖)的物联网数据通信问题。该卫星仍在工作。
2D Orbit Map
3D Orbit Map
Orbit Altitude Analysis Chart
Orbit Inclination Analysis Chart
Orbit Comprehensive Analysis Chart
View Comprehensive Chart
Miss Distance Evolution Trend with All Objects
Collision Probability Evolution Trend with All Objects